{"data":{"norad_id":48948,"intl_designator":"2021-059BX","name":"HAWK-3C","alt_names":[],"object_type":"PAYLOAD","status":"ACTIVE","operator":null,"country":"US","launch_date":"2021-06-30","launch_site_code":"AFETR","launch_vehicle":null,"mission":null,"orbit_class":"UNKNOWN","rcs_meters":null,"size_class":null,"mass_kg":null,"dimensions":null,"purposes":["tech_demo"],"wikipedia_slug":null,"has_3d_model":false,"image_url":null,"decayed_at":null,"tle_current":{"epoch":"2026-09-18T02:36:09.676512Z","epoch_age_seconds":221003,"freshness":"STALE","line1":"1 48948U 21059BX  26261.10844533  .00047316  00000+0  28185-3 0  9992","line2":"2 48948  97.6649 112.9853 0003005 357.5839   2.5411 15.77825614292465","mean_motion":15.77825614,"eccentricity":0.0003005,"inclination_deg":97.6649,"raan_deg":112.9853,"arg_perigee_deg":357.5839,"mean_anomaly_deg":2.5411,"bstar":0.00028185,"rev_number":29246,"period_min":91.264838599584,"perigee_km":334.58479115418,"apogee_km":338.62034963599,"semimajor_km":6714.7395703951,"source":"CELESTRAK","updated_at":"2026-09-20T09:00:47.449839Z"}}}